Change the Weather History Date:

Sunday, March 30, 2014

  Actual Average Record
Temperature  
Mean Temperature 36 °F -  
Max Temperature 48 °F 47 °F 62 °F (2012)
Min Temperature 24 °F 20 °F 15 °F (1997)
Degree Days  
Heating Degree Days 29    
Moisture  
Dew Point 19 °F    
Average Humidity 55    
Maximum Humidity 80    
Minimum Humidity 26    
Precipitation  
Precipitation 0.00 in - - ()
Sea Level Pressure  
Sea Level Pressure 29.94 in    
Wind  
Wind Speed 5 mph (SW)    
Max Wind Speed 31 mph    
Max Gust Speed 60 mph    
Visibility 10 miles    
Events      
Averages and records for this station are not official NWS values.
T = Trace of Precipitation, MM = Missing Value Source: NWS Daily Summary

Daily Weather History Graph

Daily Weather History Graph

Search for Another Location

Airport or City:

Trip Planner

Search our weather history database for the weather conditions in past years. The results will help you decide how hot, cold, wet, or windy it might be!

Date:

Astronomy

Mar. 30, 2014 Rise Set
Actual Time 6:55 AM MDT 7:29 PM MDT
Civil Twilight 6:28 AM MDT 7:55 PM MDT
Nautical Twilight 5:57 AM MDT 8:27 PM MDT
Astronomical Twilight 5:25 AM MDT 8:59 PM MDT
Moon 6:43 AM MDT (3/30) 7:44 PM MDT (3/30)
Length of Visible Light 13h 27m
Length of Day
12h 33m
Waning Crescent, 0% of the Moon is Illuminated
Mar 30
Waning Crescent
Mar 30
New
Apr 7
First Quarter
Apr 15
Full
Apr 22
Last Quarter

Hourly Weather History & Observations

Time (MDT) Temp. Windchill Dew Point Humidity Pressure Visibility Wind Dir Wind Speed Gust Speed Precip Events Conditions
12:15 AM 28.4 °F - 19.4 °F 69% 30.16 in 10.0 mi Calm Calm - N/A   Clear
12:35 AM 28.4 °F - 21.2 °F 74% 30.15 in 10.0 mi Calm Calm - N/A   Clear
12:55 AM 28.4 °F - 19.4 °F 69% 30.15 in 10.0 mi Calm Calm - N/A   Clear
1:15 AM 28.4 °F - 19.4 °F 69% 30.14 in 10.0 mi Calm Calm - N/A   Clear
1:35 AM 26.6 °F - 19.4 °F 74% 30.14 in 10.0 mi Calm Calm - N/A   Clear
1:55 AM 26.6 °F - 19.4 °F 74% 30.13 in 10.0 mi Calm Calm - N/A   Clear
2:15 AM 26.6 °F - 19.4 °F 74% 30.12 in 10.0 mi Calm Calm - N/A   Clear
2:35 AM 26.6 °F - 19.4 °F 74% 30.11 in 10.0 mi Calm Calm - N/A   Clear
2:55 AM 28.4 °F - 19.4 °F 69% 30.10 in 10.0 mi Calm Calm - N/A   Clear
3:15 AM 28.4 °F - 19.4 °F 69% 30.09 in 10.0 mi Calm Calm - N/A   Clear
3:35 AM 26.6 °F - 17.6 °F 69% 30.09 in 10.0 mi Calm Calm - N/A   Clear
3:55 AM 24.8 °F 20.5 °F 17.6 °F 74% 30.08 in 10.0 mi SSE 3.5 mph - N/A   Clear
4:15 AM 24.8 °F - 19.4 °F 80% 30.07 in 10.0 mi Calm Calm - N/A   Clear
4:35 AM 26.6 °F - 19.4 °F 74% 30.07 in 10.0 mi Calm Calm - N/A   Clear
4:55 AM 26.6 °F - 17.6 °F 69% 30.07 in 10.0 mi Calm Calm - N/A   Clear
5:15 AM 26.6 °F - 17.6 °F 69% 30.07 in 10.0 mi Calm Calm - N/A   Clear
5:35 AM 26.6 °F - 19.4 °F 74% 30.06 in 10.0 mi Calm Calm - N/A   Clear
5:55 AM 24.8 °F - 19.4 °F 80% 30.06 in 10.0 mi Calm Calm - N/A   Clear
6:15 AM 24.8 °F - 19.4 °F 80% 30.05 in 10.0 mi Calm Calm - N/A   Clear
6:35 AM 24.8 °F - 19.4 °F 80% 30.06 in 10.0 mi Calm Calm - N/A   Clear
6:55 AM 24.8 °F - 19.4 °F 80% 30.05 in 10.0 mi Calm Calm - N/A   Clear
7:15 AM 24.8 °F - 19.4 °F 80% 30.05 in 10.0 mi Calm Calm - N/A   Clear
7:35 AM 24.8 °F - 19.4 °F 80% 30.05 in 10.0 mi Calm Calm - N/A   Clear
7:55 AM 26.6 °F - 19.4 °F 74% 30.04 in 10.0 mi Calm Calm - N/A   Clear
8:15 AM 26.6 °F - 17.6 °F 69% 30.04 in 10.0 mi Calm Calm - N/A   Clear
8:35 AM 26.6 °F - 19.4 °F 74% 30.04 in 10.0 mi Calm Calm - N/A   Clear
8:55 AM 28.4 °F 24.6 °F 19.4 °F 69% 30.04 in 10.0 mi East 3.5 mph - N/A   Scattered Clouds
9:15 AM 26.6 °F 22.6 °F 21.2 °F 80% 30.04 in 10.0 mi South 3.5 mph - N/A   Scattered Clouds
9:35 AM 28.4 °F 22.2 °F 19.4 °F 69% 30.01 in 10.0 mi East 5.8 mph - N/A   Partly Cloudy
9:55 AM 28.4 °F 24.6 °F 19.4 °F 69% 30.01 in 10.0 mi East 3.5 mph - N/A   Partly Cloudy
10:15 AM 30.2 °F 23.4 °F 21.2 °F 69% 30.01 in 10.0 mi SW 6.9 mph - N/A   Partly Cloudy
10:35 AM 30.2 °F 25.4 °F 21.2 °F 69% 30.00 in 10.0 mi WSW 4.6 mph - N/A   Clear
10:55 AM 30.2 °F 24.3 °F 21.2 °F 69% 30.00 in 10.0 mi West 5.8 mph - N/A   Partly Cloudy
11:15 AM 33.8 °F - 19.4 °F 56% 29.98 in 10.0 mi Calm Calm - N/A   Clear
11:35 AM 33.8 °F 30.8 °F 21.2 °F 60% 29.97 in 10.0 mi East 3.5 mph - N/A   Clear
11:55 AM 33.8 °F - 19.4 °F 56% 29.96 in 10.0 mi Calm Calm - N/A   Clear
12:15 PM 35.6 °F - 19.4 °F 52% 29.94 in 10.0 mi Calm Calm - N/A   Clear
12:35 PM 37.4 °F - 19.4 °F 48% 29.93 in 10.0 mi Calm Calm - N/A   Partly Cloudy
12:55 PM 37.4 °F - 21.2 °F 52% 29.91 in 10.0 mi Calm Calm - N/A   Partly Cloudy
1:15 PM 39.2 °F 35.9 °F 21.2 °F 49% 29.90 in 10.0 mi SE 4.6 mph - N/A   Clear
1:35 PM 39.2 °F 37.0 °F 24.8 °F 56% 29.89 in 10.0 mi ENE 3.5 mph - N/A   Clear
1:55 PM 41.0 °F 36.4 °F 21.2 °F 45% 29.88 in 10.0 mi North 6.9 mph - N/A   Clear
2:15 PM 42.8 °F 40.1 °F 21.2 °F 42% 29.86 in 10.0 mi ENE 4.6 mph - N/A   Clear
2:35 PM 42.8 °F 38.0 °F 21.2 °F 42% 29.85 in 10.0 mi North 8.1 mph - N/A   Partly Cloudy
2:55 PM 42.8 °F 39.3 °F 21.2 °F 42% 29.84 in 10.0 mi North 5.8 mph - N/A   Partly Cloudy
3:15 PM 44.6 °F - 21.2 °F 39% 29.83 in 10.0 mi Calm Calm - N/A   Partly Cloudy
3:35 PM 48.2 °F - 21.2 °F 34% 29.82 in 10.0 mi WSW 10.4 mph 17.3 mph N/A   Scattered Clouds
3:55 PM 48.2 °F - 19.4 °F 32% 29.81 in 10.0 mi SSW 21.9 mph 35.7 mph N/A   Scattered Clouds
4:15 PM 48.2 °F - 24.8 °F 40% 29.80 in 10.0 mi South 21.9 mph - N/A   Partly Cloudy
4:35 PM 46.4 °F 39.0 °F 26.6 °F 46% 29.78 in 10.0 mi SSE 19.6 mph 25.3 mph N/A   Clear
4:55 PM 46.4 °F 38.3 °F 24.8 °F 43% 29.74 in 10.0 mi SSE 23.0 mph 29.9 mph N/A   Clear
5:15 PM 48.2 °F - 24.8 °F 40% 29.72 in 10.0 mi SSE 20.7 mph 25.3 mph N/A   Clear
5:35 PM 46.4 °F 39.5 °F 21.2 °F 37% 29.69 in 10.0 mi SSE 17.3 mph 26.5 mph N/A   Partly Cloudy
5:55 PM 46.4 °F 39.2 °F 19.4 °F 34% 29.69 in 10.0 mi SSW 18.4 mph 33.4 mph N/A   Scattered Clouds
6:15 PM 48.2 °F - 17.6 °F 30% 29.69 in 9.0 mi SW 29.9 mph 43.7 mph N/A   Mostly Cloudy
6:35 PM 46.4 °F 37.0 °F 17.6 °F 32% 29.68 in 7.0 mi WSW 31.1 mph 39.1 mph N/A   Scattered Clouds
6:55 PM 46.4 °F 39.5 °F 17.6 °F 32% 29.67 in 5.0 mi SSW 17.3 mph 23.0 mph N/A   Partly Cloudy
7:15 PM 46.4 °F 41.5 °F 17.6 °F 32% 29.67 in 5.0 mi SW 10.4 mph - N/A   Clear
7:35 PM 46.4 °F 39.2 °F 17.6 °F 32% 29.68 in 3.0 mi WSW 18.4 mph 31.1 mph N/A   Clear
7:55 PM 44.6 °F 34.6 °F 19.4 °F 37% 29.73 in 5.0 mi WSW 31.1 mph 48.3 mph N/A   Partly Cloudy
8:15 PM 42.8 °F 34.8 °F 17.6 °F 36% 29.77 in 10.0 mi West 17.3 mph 38.0 mph N/A   Mostly Cloudy
8:35 PM 41.0 °F 30.5 °F 14.0 °F 33% 29.79 in 10.0 mi WSW 26.5 mph 38.0 mph N/A   Mostly Cloudy
8:55 PM 39.2 °F 27.4 °F 10.4 °F 31% 29.80 in 9.0 mi WSW 29.9 mph 59.8 mph N/A   Mostly Cloudy
9:15 PM 39.2 °F 27.8 °F 8.6 °F 28% 29.82 in 10.0 mi WSW 27.6 mph 39.1 mph N/A   Partly Cloudy
9:35 PM 37.4 °F 26.1 °F 5.0 °F 26% 29.84 in 10.0 mi West 24.2 mph 39.1 mph N/A   Clear
9:55 PM 37.4 °F 25.4 °F 6.8 °F 28% 29.86 in 10.0 mi West 27.6 mph 39.1 mph N/A   Clear
10:15 PM 37.4 °F 26.1 °F 8.6 °F 30% 29.88 in 10.0 mi West 24.2 mph 39.1 mph N/A   Mostly Cloudy
10:35 PM 35.6 °F 24.5 °F 10.4 °F 35% 29.88 in 10.0 mi WSW 20.7 mph 41.4 mph N/A   Overcast
10:55 PM 35.6 °F 25.9 °F 10.4 °F 35% 29.88 in 10.0 mi WSW 16.1 mph 32.2 mph N/A   Mostly Cloudy
11:15 PM 35.6 °F 24.8 °F 12.2 °F 38% 29.89 in 10.0 mi WSW 19.6 mph 31.1 mph N/A   Scattered Clouds
11:35 PM 33.8 °F 22.2 °F 14.0 °F 44% 29.89 in 10.0 mi WSW 20.7 mph 31.1 mph N/A   Mostly Cloudy
11:55 PM 33.8 °F 24.3 °F 14.0 °F 44% 29.89 in 10.0 mi WSW 13.8 mph 31.1 mph N/A   Scattered Clouds